DRU9941 UUWW-UAOL

Flight info

Callsign DRU9941
Flight time N/A
Altitude 39000
Route TOGMO3Z TOGMO M56 BEKAS L163 INKUM
Aircraft B738/M-SDE2E3FGHIRWXY/LB1

Departure

Time 2026-04-29 07:42
Airport Vnukovo International Airport (UUWW)

Arrival

Time N/A
Airport Baikonur Krayniy International Airport (UAOL)
Time Latitude Longitude Altitude Speed Heading
2026-04-29 07:15 55.60293 37.28832 678 ft 0 kts 97°
2026-04-29 07:34 55.60293 37.28829 678 ft 2 kts 97°
2026-04-29 07:34 55.60296 37.28784 676 ft 4 kts 91°
2026-04-29 07:35 55.60296 37.28737 674 ft 4 kts 90°
2026-04-29 07:35 55.60299 37.28694 674 ft 4 kts 133°
2026-04-29 07:35 55.60301 37.28686 678 ft 0 kts 195°
2026-04-29 07:39 55.60290 37.28681 678 ft 3 kts 195°
2026-04-29 07:39 55.60259 37.28666 678 ft 10 kts 195°
2026-04-29 07:39 55.60201 37.28724 677 ft 10 kts 136°
2026-04-29 07:39 55.60153 37.28814 678 ft 10 kts 136°
2026-04-29 07:40 55.60094 37.28872 678 ft 10 kts 155°
2026-04-29 07:40 55.60029 37.28907 681 ft 10 kts 167°
2026-04-29 07:40 55.59957 37.28935 682 ft 14 kts 166°
2026-04-29 07:40 55.59851 37.28983 686 ft 16 kts 163°
2026-04-29 07:41 55.59774 37.28901 686 ft 15 kts 248°
2026-04-29 07:41 55.59669 37.28430 682 ft 76 kts 249°
2026-04-29 07:41 55.59389 37.27186 669 ft 139 kts 248°
2026-04-29 07:41 55.58970 37.25476 1125 ft 152 kts 247°
2026-04-29 07:42 55.58596 37.23711 1859 ft 153 kts 269°
2026-04-29 07:42 55.58305 37.21743 2245 ft 191 kts 238°
2026-04-29 07:42 55.57283 37.19954 2575 ft 219 kts 232°
2026-04-29 07:42 55.56318 37.17830 3168 ft 222 kts 244°
2026-04-29 07:43 55.55932 37.15266 3903 ft 216 kts 278°
2026-04-29 07:43 55.56436 37.12852 4811 ft 210 kts 310°
2026-04-29 07:43 55.57621 37.11386 5649 ft 213 kts 342°
2026-04-29 07:43 55.59125 37.11313 6349 ft 229 kts 10°
2026-04-29 07:44 55.60629 37.12675 6726 ft 258 kts 39°
2026-04-29 07:44 55.61666 37.15331 7480 ft 272 kts 66°
2026-04-29 07:44 55.61863 37.18710 8300 ft 285 kts 97°
2026-04-29 07:44 55.61077 37.21942 9170 ft 293 kts 127°
2026-04-29 07:45 55.59564 37.24359 10048 ft 296 kts 142°
2026-04-29 07:45 55.57852 37.26547 10511 ft 314 kts 143°
2026-04-29 07:45 55.56019 37.28910 10713 ft 337 kts 142°
2026-04-29 07:45 55.54111 37.31456 11174 ft 350 kts 141°
2026-04-29 07:46 55.52169 37.34099 11895 ft 355 kts 141°
2026-04-29 07:46 55.51325 37.35253 12238 ft 357 kts 141°
2026-04-29 07:46 55.49717 37.37412 12918 ft 360 kts 142°
2026-04-29 07:47 55.49548 37.37634 12986 ft 360 kts 142°
2026-04-29 07:47 55.47474 37.40330 13714 ft 368 kts 142°
2026-04-29 07:47 55.45400 37.43010 14475 ft 371 kts 142°
2026-04-29 07:48 55.44346 37.44369 14940 ft 370 kts 141°
2026-04-29 07:48 55.42268 37.47057 15785 ft 373 kts 141°
2026-04-29 07:48 55.40162 37.49782 16532 ft 377 kts 141°
2026-04-29 07:48 55.38037 37.52528 17284 ft 383 kts 141°
2026-04-29 07:49 55.35871 37.55324 18054 ft 387 kts 141°
2026-04-29 07:49 55.33684 37.58124 18777 ft 390 kts 141°
2026-04-29 07:49 55.31480 37.60937 19429 ft 394 kts 140°
2026-04-29 07:49 55.29248 37.63783 20060 ft 399 kts 140°
2026-04-29 07:50 55.27021 37.66619 20684 ft 403 kts 140°
2026-04-29 07:50 55.24746 37.69520 21314 ft 407 kts 140°
2026-04-29 07:50 55.22446 37.72454 21928 ft 411 kts 140°
2026-04-29 07:50 55.20120 37.75418 22523 ft 415 kts 140°
2026-04-29 07:51 55.17770 37.78406 23126 ft 419 kts 140°
2026-04-29 07:51 55.15517 37.81630 23670 ft 419 kts 131°
2026-04-29 07:51 55.13510 37.85348 24111 ft 422 kts 128°
2026-04-29 07:51 55.11510 37.89123 24648 ft 424 kts 129°
2026-04-29 07:52 55.09476 37.92878 25169 ft 427 kts 129°
2026-04-29 07:52 55.07418 37.96623 25665 ft 429 kts 130°
2026-04-29 07:52 55.05340 38.00385 26145 ft 432 kts 130°
2026-04-29 07:52 55.03239 38.04176 26620 ft 435 kts 130°
2026-04-29 07:53 55.01125 38.07969 27094 ft 438 kts 131°
2026-04-29 07:53 54.98995 38.11779 27548 ft 441 kts 131°
2026-04-29 07:53 54.96853 38.15605 28001 ft 443 kts 131°
2026-04-29 07:53 54.94692 38.19464 28387 ft 448 kts 131°
2026-04-29 07:54 54.92499 38.23374 28710 ft 452 kts 131°
2026-04-29 07:54 54.90299 38.27294 29149 ft 454 kts 131°
2026-04-29 07:54 54.88086 38.31228 29581 ft 456 kts 132°
2026-04-29 07:54 54.85887 38.35208 29976 ft 457 kts 129°
2026-04-29 07:55 54.83974 38.39605 30273 ft 457 kts 118°
2026-04-29 07:55 54.82431 38.44433 30553 ft 459 kts 115°
2026-04-29 07:55 54.80930 38.49328 30806 ft 462 kts 116°
2026-04-29 07:55 54.79382 38.54236 31056 ft 466 kts 117°
2026-04-29 07:56 54.77709 38.59065 31266 ft 471 kts 124°
2026-04-29 07:56 54.75579 38.63438 31407 ft 478 kts 135°
2026-04-29 07:56 54.73062 38.67203 31727 ft 479 kts 144°
2026-04-29 07:56 54.70244 38.70272 32132 ft 478 kts 150°
2026-04-29 07:57 54.67367 38.73114 32585 ft 475 kts 150°
2026-04-29 07:57 54.64513 38.75978 33030 ft 474 kts 150°
2026-04-29 07:57 54.61681 38.78893 33455 ft 472 kts 149°
2026-04-29 07:57 54.58879 38.81813 33906 ft 470 kts 150°
2026-04-29 07:58 54.56083 38.84723 34198 ft 470 kts 150°
2026-04-29 07:58 54.53282 38.87630 34458 ft 470 kts 150°
2026-04-29 07:58 54.50484 38.90527 34803 ft 468 kts 150°
2026-04-29 07:58 54.47701 38.93402 35105 ft 468 kts 150°
2026-04-29 07:59 54.44905 38.96283 35345 ft 468 kts 150°
2026-04-29 07:59 54.42137 38.99240 35574 ft 470 kts 145°
2026-04-29 07:59 54.39693 39.02977 35818 ft 473 kts 133°
2026-04-29 07:59 54.37733 39.07416 36107 ft 473 kts 122°
2026-04-29 08:00 54.36275 39.12478 36359 ft 474 kts 112°
2026-04-29 08:00 54.35099 39.17770 36593 ft 475 kts 111°
2026-04-29 08:00 54.33908 39.23047 36786 ft 476 kts 112°
2026-04-29 08:00 54.32663 39.28325 36975 ft 478 kts 113°
2026-04-29 08:01 54.31394 39.33575 37254 ft 477 kts 114°
2026-04-29 08:01 54.30099 39.38877 37554 ft 475 kts 114°
2026-04-29 08:01 54.28838 39.44020 37804 ft 475 kts 114°
2026-04-29 08:01 54.27558 39.49239 38011 ft 476 kts 114°
2026-04-29 08:02 54.26278 39.54455 38220 ft 476 kts 114°
2026-04-29 08:02 54.24995 39.59683 38464 ft 476 kts 114°
2026-04-29 08:02 54.23715 39.64893 38683 ft 476 kts 114°
2026-04-29 08:02 54.22431 39.70108 38855 ft 476 kts 114°
2026-04-29 08:03 54.21147 39.75313 38959 ft 477 kts 114°
2026-04-29 08:03 54.19853 39.80544 38967 ft 479 kts 114°
2026-04-29 08:03 54.17256 39.91003 38969 ft 476 kts 114°
2026-04-29 08:04 54.14668 40.01383 38976 ft 473 kts 114°
2026-04-29 08:04 54.12092 40.11667 38980 ft 471 kts 114°
2026-04-29 08:05 54.10001 40.22228 38979 ft 470 kts 107°
2026-04-29 08:05 54.08230 40.32950 38983 ft 470 kts 107°
2026-04-29 08:06 54.06426 40.43655 38983 ft 471 kts 107°
2026-04-29 08:06 54.04557 40.54383 38985 ft 473 kts 108°
2026-04-29 08:07 54.02979 40.63309 38986 ft 475 kts 108°
2026-04-29 08:07 54.00739 40.75917 38980 ft 477 kts 108°
2026-04-29 08:08 53.99135 40.84902 39001 ft 479 kts 108°
2026-04-29 08:08 53.97189 40.95757 38988 ft 481 kts 108°
2026-04-29 08:09 53.95240 41.06631 38986 ft 482 kts 107°
2026-04-29 08:09 53.93430 41.17606 38988 ft 482 kts 107°
2026-04-29 08:10 53.91660 41.28570 38994 ft 482 kts 107°
2026-04-29 08:10 53.89861 41.39508 38989 ft 481 kts 107°
2026-04-29 08:11 53.88057 41.50332 38997 ft 480 kts 107°
2026-04-29 08:11 53.86230 41.61215 38989 ft 479 kts 108°
2026-04-29 08:12 53.84403 41.72053 38995 ft 478 kts 108°
2026-04-29 08:12 53.82561 41.82871 38994 ft 477 kts 108°
2026-04-29 08:13 53.80708 41.93642 38998 ft 476 kts 108°
2026-04-29 08:13 53.78849 42.04393 39004 ft 476 kts 108°
2026-04-29 08:14 53.76981 42.15137 39002 ft 476 kts 108°
2026-04-29 08:14 53.75102 42.25889 39005 ft 477 kts 108°
2026-04-29 08:15 53.73213 42.36632 39003 ft 477 kts 109°
2026-04-29 08:15 53.71313 42.47370 39009 ft 478 kts 109°
2026-04-29 08:16 53.69402 42.58121 39015 ft 479 kts 109°
2026-04-29 08:16 53.67479 42.68877 39011 ft 480 kts 108°
2026-04-29 08:17 53.65721 42.79750 39015 ft 481 kts 107°
2026-04-29 08:17 53.64049 42.90682 39006 ft 482 kts 107°
2026-04-29 08:18 53.62347 43.01607 39017 ft 482 kts 107°
2026-04-29 08:18 53.60609 43.12528 39016 ft 483 kts 108°
2026-04-29 08:19 53.58856 43.23437 39019 ft 483 kts 108°
2026-04-29 08:19 53.57091 43.34352 39016 ft 484 kts 108°
2026-04-29 08:20 53.55316 43.45262 39016 ft 483 kts 108°
2026-04-29 08:20 53.53534 43.56152 39018 ft 483 kts 108°
2026-04-29 08:21 53.51741 43.67042 39026 ft 483 kts 108°
2026-04-29 08:21 53.49941 43.77909 39028 ft 483 kts 108°
2026-04-29 08:22 53.48129 43.88774 39032 ft 483 kts 108°
2026-04-29 08:22 53.46306 43.99621 39028 ft 483 kts 109°
2026-04-29 08:23 53.44475 44.10447 39031 ft 483 kts 109°
2026-04-29 08:23 53.42635 44.21277 39030 ft 483 kts 109°
2026-04-29 08:24 53.40784 44.32104 39035 ft 483 kts 109°
2026-04-29 08:24 53.38926 44.42905 39011 ft 483 kts 109°
2026-04-29 08:25 53.37059 44.53702 39028 ft 483 kts 109°
2026-04-29 08:25 53.35190 44.64420 39035 ft 483 kts 109°
2026-04-29 08:26 53.33298 44.75199 39041 ft 483 kts 109°
2026-04-29 08:26 53.31395 44.85990 39039 ft 484 kts 109°
2026-04-29 08:27 53.29484 44.96774 39037 ft 484 kts 109°
2026-04-29 08:27 53.27550 45.07552 39039 ft 483 kts 111°
2026-04-29 08:28 53.25331 45.18113 39046 ft 482 kts 114°
2026-04-29 08:28 53.22988 45.28597 39042 ft 481 kts 114°
2026-04-29 08:29 53.20669 45.39069 39039 ft 481 kts 113°
2026-04-29 08:29 53.18365 45.49556 39029 ft 481 kts 114°
2026-04-29 08:30 53.14900 45.65263 39040 ft 481 kts 114°
2026-04-29 08:31 53.12581 45.75709 39047 ft 481 kts 114°
2026-04-29 08:31 53.10249 45.86159 39048 ft 481 kts 114°
2026-04-29 08:32 53.07927 45.96612 39025 ft 481 kts 114°
2026-04-29 08:32 53.05606 46.07047 39047 ft 481 kts 114°
2026-04-29 08:33 53.03276 46.17463 39048 ft 481 kts 114°
2026-04-29 08:33 53.00933 46.27874 39060 ft 481 kts 114°
2026-04-29 08:34 52.98583 46.38274 39061 ft 482 kts 115°
2026-04-29 08:34 52.96218 46.48683 39044 ft 482 kts 115°
2026-04-29 08:35 52.93846 46.59060 39059 ft 482 kts 115°
2026-04-29 08:35 52.91464 46.69435 39062 ft 482 kts 115°
2026-04-29 08:36 52.89071 46.79814 39073 ft 482 kts 115°
2026-04-29 08:36 52.86668 46.90186 39069 ft 483 kts 115°
2026-04-29 08:37 52.84273 47.00480 39055 ft 482 kts 115°
2026-04-29 08:37 52.81854 47.10829 39069 ft 482 kts 115°
2026-04-29 08:38 52.79565 47.21268 39073 ft 484 kts 113°
2026-04-29 08:38 52.77367 47.31786 39077 ft 484 kts 113°
2026-04-29 08:39 52.75119 47.42355 39072 ft 485 kts 114°
2026-04-29 08:39 52.72872 47.52769 39075 ft 484 kts 114°
2026-04-29 08:40 52.70606 47.63226 39096 ft 485 kts 114°
2026-04-29 08:40 52.68333 47.73703 39079 ft 486 kts 114°
2026-04-29 08:41 52.66051 47.84182 39085 ft 486 kts 114°
2026-04-29 08:41 52.63760 47.94651 39058 ft 486 kts 115°
2026-04-29 08:42 52.61463 48.05100 39088 ft 486 kts 115°
2026-04-29 08:42 52.59150 48.15540 39095 ft 485 kts 115°
2026-04-29 08:43 52.56822 48.25963 39095 ft 485 kts 115°
2026-04-29 08:43 52.54487 48.36375 39096 ft 485 kts 115°
2026-04-29 08:44 52.52147 48.46765 39088 ft 485 kts 115°
2026-04-29 08:44 52.49799 48.57144 39095 ft 485 kts 115°
2026-04-29 08:45 52.47444 48.67499 39102 ft 484 kts 116°
2026-04-29 08:45 52.45079 48.77848 39104 ft 484 kts 116°
2026-04-29 08:46 52.42707 48.88177 39112 ft 484 kts 116°
2026-04-29 08:46 52.40330 48.98483 39103 ft 483 kts 116°
2026-04-29 08:47 52.37946 49.08773 39109 ft 483 kts 116°
2026-04-29 08:47 52.35547 49.19052 39114 ft 483 kts 116°
2026-04-29 08:48 52.33137 49.29295 39116 ft 483 kts 116°
2026-04-29 08:48 52.30717 49.39546 39116 ft 483 kts 116°
2026-04-29 08:49 52.28305 49.49716 39117 ft 483 kts 116°
2026-04-29 08:49 52.25857 49.59993 39129 ft 483 kts 116°
2026-04-29 08:50 52.23429 49.70142 39128 ft 484 kts 117°
2026-04-29 08:50 52.20974 49.80363 39137 ft 484 kts 117°
2026-04-29 08:51 52.18511 49.90573 39141 ft 484 kts 117°
2026-04-29 08:51 52.16439 49.99123 39144 ft 485 kts 117°
2026-04-29 08:52 52.13953 50.09336 39141 ft 485 kts 117°
2026-04-29 08:52 52.11476 50.19465 39139 ft 485 kts 117°
2026-04-29 08:53 52.08972 50.29661 39141 ft 485 kts 117°
2026-04-29 08:53 52.06460 50.39839 39124 ft 485 kts 117°
2026-04-29 08:54 52.03942 50.49995 39138 ft 485 kts 118°
2026-04-29 08:54 52.01417 50.60137 39150 ft 485 kts 118°
2026-04-29 08:55 51.98880 50.70275 39150 ft 485 kts 118°
2026-04-29 08:55 51.96334 50.80413 39153 ft 485 kts 118°
2026-04-29 08:56 51.93767 50.90545 39148 ft 485 kts 119°
2026-04-29 08:56 51.91133 51.00610 39150 ft 485 kts 119°
2026-04-29 08:57 51.88470 51.10680 39155 ft 486 kts 119°
2026-04-29 08:57 51.85808 51.20745 39152 ft 487 kts 119°
2026-04-29 08:58 51.83155 51.30756 39134 ft 488 kts 120°
2026-04-29 08:58 51.80476 51.40827 39147 ft 488 kts 120°
2026-04-29 08:59 51.77784 51.50898 39159 ft 488 kts 120°
2026-04-29 08:59 51.75082 51.60963 39165 ft 489 kts 120°
2026-04-29 09:00 51.72371 51.71018 39163 ft 489 kts 120°
2026-04-29 09:00 51.69651 51.81070 39150 ft 489 kts 120°
2026-04-29 09:01 51.66686 51.90859 39158 ft 479 kts 131°
2026-04-29 09:01 51.62670 51.99252 39170 ft 472 kts 136°
2026-04-29 09:02 51.58556 52.07472 39157 ft 472 kts 136°
2026-04-29 09:02 51.54460 52.15729 39150 ft 472 kts 136°
2026-04-29 09:03 51.50384 52.24006 39162 ft 472 kts 136°
2026-04-29 09:03 51.46315 52.32267 39178 ft 472 kts 136°
2026-04-29 09:04 51.42235 52.40524 39183 ft 472 kts 136°
2026-04-29 09:04 51.38159 52.48742 39152 ft 472 kts 136°
2026-04-29 09:05 51.34071 52.56959 39176 ft 471 kts 136°
2026-04-29 09:05 51.30015 52.65082 39186 ft 471 kts 136°
2026-04-29 09:06 51.25904 52.73291 39189 ft 471 kts 136°
2026-04-29 09:06 51.21807 52.81446 39148 ft 471 kts 136°
2026-04-29 09:07 51.17707 52.89582 39185 ft 470 kts 136°
2026-04-29 09:07 51.13606 52.97692 39200 ft 470 kts 136°
2026-04-29 09:08 51.09496 53.05796 39199 ft 470 kts 137°
2026-04-29 09:08 51.05377 53.13890 39203 ft 471 kts 137°
2026-04-29 09:09 51.01269 53.21942 39192 ft 470 kts 137°
2026-04-29 09:09 50.97151 53.29987 39197 ft 469 kts 137°
2026-04-29 09:10 50.93028 53.38016 39198 ft 469 kts 137°
2026-04-29 09:10 50.88911 53.46007 39206 ft 468 kts 137°
2026-04-29 09:11 50.84789 53.53986 39204 ft 467 kts 137°
2026-04-29 09:11 50.80674 53.61924 39204 ft 466 kts 137°
2026-04-29 09:12 50.76581 53.69796 39206 ft 466 kts 137°
2026-04-29 09:12 50.72439 53.77739 39206 ft 465 kts 137°
2026-04-29 09:13 50.68324 53.85604 39210 ft 465 kts 137°
2026-04-29 09:13 50.64205 53.93455 39209 ft 464 kts 137°
2026-04-29 09:14 50.60086 54.01280 39207 ft 464 kts 137°
2026-04-29 09:14 50.55958 54.09101 39209 ft 464 kts 137°
2026-04-29 09:15 50.51854 54.16854 39201 ft 464 kts 137°
2026-04-29 09:15 50.47720 54.24638 39204 ft 464 kts 137°
2026-04-29 09:16 50.43577 54.32415 39210 ft 464 kts 137°
2026-04-29 09:16 50.39435 54.40170 39208 ft 464 kts 137°
2026-04-29 09:17 50.35283 54.47922 39206 ft 464 kts 137°
2026-04-29 09:17 50.31131 54.55652 39202 ft 463 kts 137°
2026-04-29 09:18 50.27041 54.63462 39208 ft 465 kts 136°
2026-04-29 09:18 50.23687 54.70040 39202 ft 465 kts 136°